Regional Weather Roundup
Issued by NWS

Home | Current Version | Previous Version | Graphics & Text | Print | Product List | Glossary On
Versions: 1 2 3 4 5 6 7 8 9 10 11 12 13 14 15 16 17 18 19 20 21 22 23 24 25 26 27 28 29 30 31 32 33 34 35 36 37 38 39 40 41 42 43 44 45 46 47 48 49 50
000
ASUS43 KDTX 231510
RWRMI
MICHIGAN HOURLY REGIONAL WEATHER ROUNDUP
NATIONAL WEATHER SERVICE DETROIT/PONTIAC MI
1100 AM EDT SAT JUL 23 2016

NOTE: "FAIR" INDICATES FEW OR NO CLOUDS BELOW 12,000 FEET WITH NO
SIGNIFICANT WEATHER AND/OR OBSTRUCTION TO VISIBILITY.

MIZ047>049-052>055-059>063-066>070-074>076-081>083-231600-
SOUTHEAST LOWER MICHIGAN

CITY           SKY/WX    TMP DP  RH WIND       PRES   REMARKS
ADRIAN         SUNNY     84  69  60 VRB3      30.00F
ALMA           SUNNY     84  72  67 CALM      30.01R HX  90
ANN ARBOR      SUNNY     85  68  56 CALM      29.99F
BAD AXE        SUNNY     82  64  54 NW6       30.00S
CARO           MOSUNNY   81  70  69 N5        29.99S
DETROIT CITY   MOSUNNY   85  65  51 SW5       29.98F
DETROIT        MOSUNNY   86  63  45 CALM      29.99F
FLINT          SUNNY     87  69  54 CALM      29.99F HX  91
GROSSE ILE     MOSUNNY   83  69  63 S5        29.98S
HOWELL         SUNNY     84  68  59 NW3       30.00F

CITY           SKY/WX    TMP DP  RH WIND       PRES   REMARKS
JACKSON        SUNNY     82  68  62 CALM      30.01F
LAMBERTVILLE   SUNNY     85  70  61 CALM      29.99F
LANSING        SUNNY     83  70  64 N7        30.01S
LAPEER         FAIR      83  69  62 CALM      30.00S
MASON          SUNNY     82  69  63 CALM      30.00F
MONROE         SUNNY     83  71  67 MISG      29.98F
MT. CLEMENS    MOSUNNY   88  62  41 W3        29.96F
PONTIAC        MOSUNNY   83  66  56 W5        29.99F
PORT HOPE        N/A     79  64  60 VRB3      29.98R
PORT HURON     MOSUNNY   82  66  57 W5        29.98S
TRI CITIES     SUNNY     83  69  62 CALM      29.99F
MIDLAND        FAIR      83  67  56 NW3       29.98F
TROY           SUNNY     87  55  33 CALM      30.00F
SAGINAW HB     SUNNY     82  68  61 CALM      29.99S
$$
MIZ043>046-050>051-056>058-064>065-071>073-077>080-231600-
SOUTHWEST LOWER MICHIGAN

CITY           SKY/WX    TMP DP  RH WIND       PRES   REMARKS
BATTLE CREEK   SUNNY     82  68  62 VRB3      30.02R
BENTON HARBOR  MOSUNNY   85  72  65 NW3       29.99S HX  91
BIG RAPIDS     SUNNY     84  68  59 NE3       30.01S
COLDWATER      SUNNY     81  65  58 MISG      30.01S
FREMONT        FAIR      85  76  76 CALM      29.98F HX  94
HOLLAND        SUNNY     88  72  58 CALM      30.00R HX  94
GRAND RAPIDS   MOSUNNY   86  70  58 NW6       30.00S HX  90
IONIA          FAIR      83  69  63 CALM      30.00R
KALAMAZOO      SUNNY     85  68  56 N6        30.01R
LUDINGTON      SUNNY     83  71  68 CALM      29.98F
MARSHALL       SUNNY     83  68  60 CALM      30.00S
MOUNT PLEASANT SUNNY     85  66  51 N3        29.99S
MUSKEGON       MOSUNNY   87  73  62 CALM      29.98F HX  94
SOUTH HAVEN    SUNNY     85  72  65 CALM      29.99S HX  91
$$
MIZ016>042-231600-
NORTHERN LOWER MICHIGAN

CITY           SKY/WX    TMP DP  RH WIND       PRES   REMARKS
ALPENA         SUNNY     86  58  38 NW6       29.99S
BEAVER ISLAND  SUNNY     79  62  56 E3        30.00S
BELLAIRE       SUNNY     81  67  60 CALM      29.99S
CADILLAC       SUNNY     84  59  43 CALM      30.02S
CHARLEVOIX     SUNNY     78  66  66 CALM      30.03R
FRANKFORT      SUNNY     83  70  65 W5        29.99S
GAYLORD        SUNNY     81  61  50 VRB6      30.03S
GRAYLING       SUNNY     85  60  43 CALM      30.02S
HARBOR SPRINGS SUNNY     74  68  81 SW3       30.00S
HOUGHTON LAKE  SUNNY     81  68  64 SW5       30.02S
MANISTEE       SUNNY     88  65  46 N5        29.98F HX  90
OSCODA         SUNNY     85  60  42 N7        29.98R
PELLSTON       SUNNY     81  63  54 CALM      30.00S
ROGERS CITY    SUNNY     77  59  54 N8        30.01R
TRAVERSE CITY  MOSUNNY   83  65  54 VRB5      29.98R
$$
MIZ007>008-015-231600-
EASTERN UPPER MICHIGAN

CITY           SKY/WX    TMP DP  RH WIND       PRES   REMARKS
KINROSS        SUNNY     79  60  52 N7        29.99F
MACKINAC ISLAN SUNNY     77  62  61 CALM      30.00R
NEWBERRY       SUNNY     79  63  57 CALM      29.99S HAZE
S. S. MARIE    SUNNY     79  61  53 CALM      29.97F
MUNISING         N/A     72  64  76 E3        30.00R
$$
MIZ004>006-011>014-085-231600-
CENTRAL UPPER MICHIGAN

CITY           SKY/WX    TMP DP  RH WIND       PRES   REMARKS
MANISTIQUE     SUNNY     78  66  66 S5        30.00R
ESCANABA       SUNNY     81  63  54 N3        29.98F
MENOMINEE      SUNNY     81  65  58 SE7       29.99F
SAWYER-GWINN   SUNNY     75  59  57 N6        30.04R
$$
MIZ001>003-009>011-084-231600-
WESTERN UPPER MICHIGAN

CITY           SKY/WX    TMP DP  RH WIND       PRES   REMARKS
IRON MOUNTAIN  SUNNY     81  60  48 CALM      30.00F
HOUGHTON       MOSUNNY   73  60  63 E8        30.01S
COPPER HARBOR    N/A     68  59  73 E3        30.02R
IRONWOOD       SUNNY     79  63  57 E6        29.96F
$$

ABBREVIATIONS USED IN REMARKS
   TC - TEMPERATURE IN CELSIUS
  WCI - WIND CHILL INDEX
   HX - HEAT INDEX
  VSB - VISIBILITY




USA.gov is the U.S. government's official web portal to all federal, state and local government web resources and services.